When you browse on this site, cookies collect data to enhance your experience and personalize the content and advertising you see.
Visit our Privacy Policy to learn more. By continuing to use the site, you agree to this use of cookies and data.
  • en France
  • Liste des pays
  • À 7 jours
  • Température de l'eau
  • Carte satellitaire
  • Carte météo
  • Widgets météo
  • user-avatar
    Se connecter

    Météo par heure à Mangotsfield

    Ce jour, 16 Juin, Dimanche

    Heure Température Précipitation Vent Pression Humidité
    00:00 +9°C° 0 mm 3 m/s 755 mmHg 92%
    01:00 +9°C° 0 mm 3 m/s 755 mmHg 93%
    02:00 +9°C° 0 mm 3 m/s 754 mmHg 94%
    03:00 +9°C° 0 mm 3 m/s 754 mmHg 96%
    04:00 +10°C° 0 mm 3 m/s 754 mmHg 94%
    05:00 +10°C° 0 mm 3 m/s 754 mmHg 93%
    06:00 +11°C° 0 mm 4 m/s 754 mmHg 92%
    07:00 +12°C° 0.2 mm 4 m/s 755 mmHg 91%
    08:00 +13°C° 0.2 mm 5 m/s 755 mmHg 90%
    09:00 +14°C° 0.2 mm 5 m/s 755 mmHg 89%
    10:00 +14°C° 0.5 mm 6 m/s 755 mmHg 89%
    11:00 +15°C° 0.5 mm 7 m/s 755 mmHg 88%
    12:00 +15°C° 0.5 mm 7 m/s 756 mmHg 87%
    13:00 +15°C° 0.4 mm 7 m/s 756 mmHg 88%
    14:00 +15°C° 0.4 mm 7 m/s 756 mmHg 89%
    15:00 +14°C° 0.4 mm 7 m/s 756 mmHg 89%
    16:00 +14°C° 0.1 mm 6 m/s 756 mmHg 88%
    17:00 +15°C° 0.1 mm 6 m/s 756 mmHg 87%
    18:00 +15°C° 0.1 mm 6 m/s 756 mmHg 86%
    19:00 +14°C° 0 mm 6 m/s 756 mmHg 88%
    20:00 +13°C° 0 mm 5 m/s 757 mmHg 90%
    21:00 +12°C° 0 mm 5 m/s 757 mmHg 91%
    22:00 +10°C° 0 mm 5 m/s 757 mmHg 92%
    23:00 +10°C° 0 mm 5 m/s 757 mmHg 93%

    Demain, 17 Juin, Lundi

    Heure Température Précipitation Vent Pression Humidité
    00:00 +10°C° 0 mm 5 m/s 757 mmHg 95%
    01:00 +11°C° 0 mm 4 m/s 757 mmHg 94%
    02:00 +10°C° 0 mm 4 m/s 756 mmHg 94%
    03:00 +10°C° 0 mm 4 m/s 756 mmHg 94%
    04:00 +11°C° 0 mm 4 m/s 756 mmHg 93%
    05:00 +12°C° 0 mm 5 m/s 756 mmHg 92%
    06:00 +12°C° 0 mm 5 m/s 756 mmHg 91%
    07:00 +13°C° 0 mm 5 m/s 757 mmHg 87%
    08:00 +14°C° 0 mm 5 m/s 757 mmHg 84%
    09:00 +15°C° 0 mm 6 m/s 757 mmHg 81%
    10:00 +16°C° 0.2 mm 6 m/s 757 mmHg 80%
    11:00 +17°C° 0.2 mm 6 m/s 757 mmHg 78%
    12:00 +17°C° 0.2 mm 7 m/s 757 mmHg 77%
    13:00 +17°C° 0.3 mm 6 m/s 757 mmHg 77%
    14:00 +17°C° 0.3 mm 6 m/s 757 mmHg 78%
    15:00 +17°C° 0.3 mm 6 m/s 757 mmHg 78%
    16:00 +17°C° 0.2 mm 5 m/s 756 mmHg 81%
    17:00 +16°C° 0.2 mm 5 m/s 756 mmHg 84%
    18:00 +15°C° 0.2 mm 4 m/s 756 mmHg 87%
    19:00 +14°C° 0 mm 3 m/s 756 mmHg 89%
    20:00 +13°C° 0 mm 3 m/s 757 mmHg 90%
    21:00 +13°C° 0 mm 3 m/s 757 mmHg 92%
    22:00 +13°C° 0 mm 2 m/s 757 mmHg 93%
    23:00 +13°C° 0 mm 2 m/s 757 mmHg 94%

    Après-demain, 18 Juin, Mardi

    Heure Température Précipitation Vent Pression Humidité
    00:00 +12°C° 0 mm 2 m/s 757 mmHg 95%
    01:00 +12°C° 0 mm 1 m/s 757 mmHg 95%
    02:00 +12°C° 0 mm 1 m/s 756 mmHg 95%
    03:00 +11°C° 0 mm 1 m/s 756 mmHg 96%
    04:00 +12°C° 0 mm 1 m/s 756 mmHg 95%
    05:00 +12°C° 0 mm 1 m/s 756 mmHg 94%
    06:00 +13°C° 0 mm 1 m/s 756 mmHg 93%
    07:00 +14°C° 0 mm 1 m/s 756 mmHg 89%
    08:00 +15°C° 0 mm 1 m/s 756 mmHg 84%
    09:00 +16°C° 0 mm 1 m/s 756 mmHg 80%
    10:00 +18°C° 0 mm 1 m/s 756 mmHg 77%
    11:00 +19°C° 0 mm 1 m/s 756 mmHg 75%
    12:00 +19°C° 0 mm 1 m/s 755 mmHg 72%
    13:00 +19°C° 0.2 mm 1 m/s 755 mmHg 76%
    14:00 +18°C° 0.2 mm 1 m/s 755 mmHg 81%
    15:00 +18°C° 0.2 mm 1 m/s 754 mmHg 85%
    16:00 +16°C° 1 mm 1 m/s 754 mmHg 89%
    17:00 +16°C° 1 mm 1 m/s 754 mmHg 92%
    18:00 +15°C° 1 mm 1 m/s 754 mmHg 95%
    19:00 +15°C° 0.6 mm 1 m/s 754 mmHg 95%
    20:00 +14°C° 0.6 mm 1 m/s 754 mmHg 96%
    21:00 +14°C° 0.6 mm 1 m/s 753 mmHg 96%
    22:00 +14°C° 0.1 mm 1 m/s 753 mmHg 95%
    23:00 +13°C° 0.1 mm 1 m/s 753 mmHg 95%

    19 Juin, Mercredi

    Heure Température Précipitation Vent Pression Humidité
    00:00 +13°C° 0.1 mm 1 m/s 752 mmHg 94%
    01:00 +13°C° 0 mm 1 m/s 752 mmHg 94%
    02:00 +13°C° 0 mm 1 m/s 752 mmHg 94%
    03:00 +13°C° 0 mm 1 m/s 751 mmHg 95%
    04:00 +13°C° 0 mm 2 m/s 751 mmHg 94%
    05:00 +14°C° 0 mm 2 m/s 751 mmHg 94%
    06:00 +14°C° 0 mm 2 m/s 750 mmHg 94%
    07:00 +14°C° 0.2 mm 2 m/s 750 mmHg 94%
    08:00 +15°C° 0.2 mm 2 m/s 750 mmHg 94%
    09:00 +15°C° 0.2 mm 2 m/s 750 mmHg 94%
    10:00 +15°C° 0.5 mm 2 m/s 750 mmHg 94%
    11:00 +14°C° 0.5 mm 3 m/s 750 mmHg 95%
    12:00 +14°C° 0.5 mm 3 m/s 750 mmHg 95%
    13:00 +14°C° 1.5 mm 3 m/s 750 mmHg 95%
    14:00 +14°C° 1.5 mm 3 m/s 750 mmHg 95%
    15:00 +14°C° 1.5 mm 3 m/s 750 mmHg 95%
    16:00 +14°C° 0.2 mm 3 m/s 750 mmHg 93%
    17:00 +16°C° 0.2 mm 3 m/s 750 mmHg 91%
    18:00 +16°C° 0.2 mm 3 m/s 750 mmHg 89%
    19:00 +14°C° 0.1 mm 3 m/s 751 mmHg 90%
    20:00 +13°C° 0.1 mm 3 m/s 751 mmHg 91%
    21:00 +12°C° 0.1 mm 3 m/s 752 mmHg 92%
    22:00 +11°C° 0 mm 3 m/s 752 mmHg 91%
    23:00 +11°C° 0 mm 3 m/s 752 mmHg 91%

    20 Juin, Jeudi

    Heure Température Précipitation Vent Pression Humidité
    00:00 +10°C° 0 mm 2 m/s 752 mmHg 90%
    01:00 +10°C° 0 mm 2 m/s 752 mmHg 91%
    02:00 +9°C° 0 mm 2 m/s 753 mmHg 92%
    03:00 +9°C° 0 mm 2 m/s 753 mmHg 93%
    04:00 +10°C° 0 mm 2 m/s 753 mmHg 93%
    05:00 +12°C° 0 mm 2 m/s 753 mmHg 92%
    06:00 +12°C° 0 mm 2 m/s 753 mmHg 92%
    07:00 +14°C° 0 mm 2 m/s 754 mmHg 86%
    08:00 +14°C° 0 mm 3 m/s 754 mmHg 81%
    09:00 +16°C° 0 mm 3 m/s 754 mmHg 75%
    10:00 +17°C° 0.1 mm 3 m/s 754 mmHg 72%
    11:00 +17°C° 0.1 mm 4 m/s 755 mmHg 69%
    12:00 +18°C° 0.1 mm 4 m/s 755 mmHg 66%
    13:00 +18°C° 0 mm 4 m/s 755 mmHg 65%
    14:00 +17°C° 0 mm 5 m/s 755 mmHg 65%
    15:00 +17°C° 0 mm 5 m/s 755 mmHg 64%
    16:00 +16°C° 0 mm 5 m/s 755 mmHg 67%
    17:00 +15°C° 0 mm 4 m/s 755 mmHg 70%
    18:00 +15°C° 0 mm 4 m/s 755 mmHg 73%
    19:00 +13°C° 0 mm 4 m/s 755 mmHg 78%
    20:00 +12°C° 0 mm 3 m/s 755 mmHg 83%
    21:00 +10°C° 0 mm 3 m/s 755 mmHg 88%
    22:00 +10°C° 0 mm 3 m/s 755 mmHg 89%
    23:00 +10°C° 0 mm 2 m/s 756 mmHg 90%

    21 Juin, Vendredi

    Heure Température Précipitation Vent Pression Humidité
    00:00 +9°C° 0 mm 2 m/s 756 mmHg 91%
    01:00 +9°C° 0 mm 2 m/s 756 mmHg 92%
    02:00 +9°C° 0 mm 2 m/s 756 mmHg 92%
    03:00 +8°C° 0 mm 2 m/s 756 mmHg 92%
    04:00 +9°C° 0 mm 2 m/s 756 mmHg 90%
    05:00 +10°C° 0 mm 3 m/s 756 mmHg 88%
    06:00 +10°C° 0 mm 3 m/s 756 mmHg 87%
    07:00 +12°C° 0.1 mm 3 m/s 757 mmHg 82%
    08:00 +13°C° 0.1 mm 4 m/s 757 mmHg 78%
    09:00 +15°C° 0.1 mm 4 m/s 757 mmHg 74%
    10:00 +15°C° 0.2 mm 4 m/s 757 mmHg 72%
    11:00 +17°C° 0.2 mm 4 m/s 757 mmHg 70%
    12:00 +18°C° 0.2 mm 4 m/s 757 mmHg 68%
    13:00 +18°C° 0.2 mm 4 m/s 757 mmHg 67%
    14:00 +18°C° 0.2 mm 4 m/s 757 mmHg 66%
    15:00 +18°C° 0.2 mm 4 m/s 757 mmHg 66%
    16:00 +18°C° 0.1 mm 4 m/s 757 mmHg 68%
    17:00 +17°C° 0.1 mm 4 m/s 758 mmHg 71%
    18:00 +17°C° 0.1 mm 3 m/s 758 mmHg 74%
    19:00 +14°C° 0 mm 3 m/s 758 mmHg 78%
    20:00 +14°C° 0 mm 2 m/s 759 mmHg 83%
    21:00 +12°C° 0 mm 2 m/s 759 mmHg 87%
    22:00 +10°C° 0 mm 2 m/s 759 mmHg 87%
    23:00 +10°C° 0 mm 2 m/s 760 mmHg 87%
    Voir plus